Year,Month,Day,Hour,Minute,Value (Times are PST for windspeed in km/hr)
2009,04,02,00,00,9.00
2009,04,02,00,01,7.90
2009,04,02,00,02,7.70
2009,04,02,00,03,14.20
2009,04,02,00,04,7.90
2009,04,02,00,05,8.80
2009,04,02,00,06,7.00
2009,04,02,00,07,9.90
2009,04,02,00,08,8.10
2009,04,02,00,09,6.00
2009,04,02,00,10,8.20
2009,04,02,00,11,8.60
2009,04,02,00,12,7.10
2009,04,02,00,13,3.50
2009,04,02,00,14,5.30
2009,04,02,00,15,3.00
2009,04,02,00,16,2.50
2009,04,02,00,17,4.00
2009,04,02,00,18,4.40
2009,04,02,00,19,4.70
2009,04,02,00,20,4.20
2009,04,02,00,21,8.80
2009,04,02,00,22,8.80
2009,04,02,00,23,4.90
2009,04,02,00,24,6.40
2009,04,02,00,25,6.80
2009,04,02,00,26,3.50
2009,04,02,00,27,2.50
2009,04,02,00,28,3.70
2009,04,02,00,29,4.60
2009,04,02,00,30,5.60
2009,04,02,00,31,5.50
2009,04,02,00,32,3.70
2009,04,02,00,33,2.30
2009,04,02,00,34,6.40
2009,04,02,00,35,2.40
2009,04,02,00,36,0.80
2009,04,02,00,37,0.20
2009,04,02,00,38,2.60
2009,04,02,00,39,3.80
2009,04,02,00,40,1.40
2009,04,02,00,41,1.80
2009,04,02,00,42,1.70
2009,04,02,00,43,0.10
2009,04,02,00,44,4.30
2009,04,02,00,45,1.50
2009,04,02,00,46,0.00
2009,04,02,00,47,1.20
2009,04,02,00,48,1.10
2009,04,02,00,49,0.30
2009,04,02,00,50,2.30
2009,04,02,00,51,1.90
2009,04,02,00,52,2.00
2009,04,02,00,53,1.90
2009,04,02,00,54,1.10
2009,04,02,00,55,3.80
2009,04,02,00,56,3.70
2009,04,02,00,57,0.90
2009,04,02,00,58,0.70
2009,04,02,00,59,0.00
2009,04,02,01,00,0.20
2009,04,02,01,01,3.70
2009,04,02,01,02,1.70
2009,04,02,01,03,0.40
2009,04,02,01,04,1.30
2009,04,02,01,05,2.00
2009,04,02,01,06,0.70
2009,04,02,01,07,0.30
2009,04,02,01,08,2.30
2009,04,02,01,09,0.90
2009,04,02,01,10,2.40
2009,04,02,01,11,3.40
2009,04,02,01,12,1.90
2009,04,02,01,13,1.40
2009,04,02,01,14,0.00
2009,04,02,01,15,0.50
2009,04,02,01,16,2.60
2009,04,02,01,17,0.50
2009,04,02,01,18,2.50
2009,04,02,01,19,0.40
2009,04,02,01,20,1.70
2009,04,02,01,21,0.70
2009,04,02,01,22,0.00
2009,04,02,01,23,0.00
2009,04,02,01,24,2.70
2009,04,02,01,25,3.20
2009,04,02,01,26,3.40
2009,04,02,01,27,1.90
2009,04,02,01,28,2.60
2009,04,02,01,29,5.00
2009,04,02,01,30,5.50
2009,04,02,01,31,4.30
2009,04,02,01,32,3.00
2009,04,02,01,33,3.00
2009,04,02,01,34,4.90
2009,04,02,01,35,5.20
2009,04,02,01,36,5.30
2009,04,02,01,37,3.00
2009,04,02,01,38,5.40
2009,04,02,01,39,5.10
2009,04,02,01,40,3.30
2009,04,02,01,41,4.40
2009,04,02,01,42,3.20
2009,04,02,01,43,3.70
2009,04,02,01,44,2.90
2009,04,02,01,45,1.60
2009,04,02,01,46,2.20
2009,04,02,01,47,4.50
2009,04,02,01,48,5.40
2009,04,02,01,49,4.70
2009,04,02,01,50,3.40
2009,04,02,01,51,2.70
2009,04,02,01,52,3.80
2009,04,02,01,53,3.90
2009,04,02,01,54,4.50
2009,04,02,01,55,4.60
2009,04,02,01,56,3.40
2009,04,02,01,57,2.90
2009,04,02,01,58,3.70
2009,04,02,01,59,3.80
2009,04,02,02,00,2.30
2009,04,02,02,01,1.90
2009,04,02,02,02,3.30
2009,04,02,02,03,3.30
2009,04,02,02,04,2.60
2009,04,02,02,05,3.30
2009,04,02,02,06,3.50
2009,04,02,02,07,2.60
2009,04,02,02,08,2.90
2009,04,02,02,09,4.50
2009,04,02,02,10,2.70
2009,04,02,02,11,3.70
2009,04,02,02,12,2.50
2009,04,02,02,13,2.80
2009,04,02,02,14,2.30
2009,04,02,02,15,4.80
2009,04,02,02,16,4.80
2009,04,02,02,17,3.90
2009,04,02,02,18,7.00
2009,04,02,02,19,3.20
2009,04,02,02,20,5.20
2009,04,02,02,21,2.20
2009,04,02,02,22,2.30
2009,04,02,02,23,0.10
2009,04,02,02,24,0.00
2009,04,02,02,25,0.00
2009,04,02,02,26,0.20
2009,04,02,02,27,1.40
2009,04,02,02,28,3.80
2009,04,02,02,29,3.40
2009,04,02,02,30,4.20
2009,04,02,02,31,2.90
2009,04,02,02,32,1.10
2009,04,02,02,33,0.20
2009,04,02,02,34,0.00
2009,04,02,02,35,1.20
2009,04,02,02,36,2.40
2009,04,02,02,37,0.80
2009,04,02,02,38,0.70
2009,04,02,02,39,1.10
2009,04,02,02,40,1.00
2009,04,02,02,41,2.20
2009,04,02,02,42,0.10
2009,04,02,02,43,1.00
2009,04,02,02,44,0.70
2009,04,02,02,45,1.30
2009,04,02,02,46,1.10
2009,04,02,02,47,1.40
2009,04,02,02,48,2.80
2009,04,02,02,49,1.10
2009,04,02,02,50,1.80
2009,04,02,02,51,1.80
2009,04,02,02,52,1.40
2009,04,02,02,53,3.70
2009,04,02,02,54,1.90
2009,04,02,02,55,2.90
2009,04,02,02,56,3.20
2009,04,02,02,57,2.50
2009,04,02,02,58,3.20
2009,04,02,02,59,1.50
2009,04,02,03,00,2.80
2009,04,02,03,01,3.30
2009,04,02,03,02,2.60
2009,04,02,03,03,3.20
2009,04,02,03,04,2.10
2009,04,02,03,05,2.10
2009,04,02,03,06,1.70
2009,04,02,03,07,3.40
2009,04,02,03,08,2.20
2009,04,02,03,09,2.50
2009,04,02,03,10,4.70
2009,04,02,03,11,2.70
2009,04,02,03,12,1.60
2009,04,02,03,13,2.50
2009,04,02,03,14,1.00
2009,04,02,03,15,1.80
2009,04,02,03,16,0.00
2009,04,02,03,17,2.60
2009,04,02,03,18,2.70
2009,04,02,03,19,3.20
2009,04,02,03,20,1.00
2009,04,02,03,21,0.90
2009,04,02,03,22,0.60
2009,04,02,03,23,0.30
2009,04,02,03,24,0.00
2009,04,02,03,25,1.40
2009,04,02,03,26,1.60
2009,04,02,03,27,0.70
2009,04,02,03,28,1.50
2009,04,02,03,29,0.20
2009,04,02,03,30,1.10
2009,04,02,03,31,1.00
2009,04,02,03,32,1.00
2009,04,02,03,33,1.50
2009,04,02,03,34,0.30
2009,04,02,03,35,0.30
2009,04,02,03,36,0.70
2009,04,02,03,37,0.20
2009,04,02,03,38,1.00
2009,04,02,03,39,0.40
2009,04,02,03,40,3.40
2009,04,02,03,41,3.90
2009,04,02,03,42,1.60
2009,04,02,03,43,2.40
2009,04,02,03,44,2.40
2009,04,02,03,45,2.50
2009,04,02,03,46,2.90
2009,04,02,03,47,1.30
2009,04,02,03,48,0.20
2009,04,02,03,49,1.40
2009,04,02,03,50,1.90
2009,04,02,03,51,2.00
2009,04,02,03,52,1.30
2009,04,02,03,53,2.50
2009,04,02,03,54,3.40
2009,04,02,03,55,3.30
2009,04,02,03,56,1.90
2009,04,02,03,57,4.20
2009,04,02,03,58,4.40
2009,04,02,03,59,2.00
2009,04,02,04,00,2.10
2009,04,02,04,01,3.90
2009,04,02,04,02,3.80
2009,04,02,04,03,0.70
2009,04,02,04,04,4.20
2009,04,02,04,05,8.10
2009,04,02,04,06,5.10
2009,04,02,04,07,3.10
2009,04,02,04,08,3.10
2009,04,02,04,09,3.30
2009,04,02,04,10,5.10
2009,04,02,04,11,3.60
2009,04,02,04,12,3.50
2009,04,02,04,13,4.70
2009,04,02,04,14,7.50
2009,04,02,04,15,5.20
2009,04,02,04,16,4.70
2009,04,02,04,17,5.00
2009,04,02,04,18,6.10
2009,04,02,04,19,3.30
2009,04,02,04,20,3.70
2009,04,02,04,21,3.30
2009,04,02,04,22,5.50
2009,04,02,04,23,5.40
2009,04,02,04,24,2.30
2009,04,02,04,25,4.00
2009,04,02,04,26,3.50
2009,04,02,04,27,4.40
2009,04,02,04,28,1.60
2009,04,02,04,29,1.10
2009,04,02,04,30,3.30
2009,04,02,04,31,3.20
2009,04,02,04,32,3.60
2009,04,02,04,33,2.80
2009,04,02,04,34,1.70
2009,04,02,04,35,0.80
2009,04,02,04,36,3.20
2009,04,02,04,37,3.30
2009,04,02,04,38,3.20
2009,04,02,04,39,4.50
2009,04,02,04,40,3.20
2009,04,02,04,41,2.30
2009,04,02,04,42,2.70
2009,04,02,04,43,2.00
2009,04,02,04,44,1.70
2009,04,02,04,45,2.30
2009,04,02,04,46,2.00
2009,04,02,04,47,4.20
2009,04,02,04,48,3.60
2009,04,02,04,49,3.30
2009,04,02,04,50,4.50
2009,04,02,04,51,3.20
2009,04,02,04,52,3.90
2009,04,02,04,53,1.80
2009,04,02,04,54,2.30
2009,04,02,04,55,0.40
2009,04,02,04,56,2.40
2009,04,02,04,57,1.60
2009,04,02,04,58,3.40
2009,04,02,04,59,2.40
2009,04,02,05,00,3.10
2009,04,02,05,01,3.00
2009,04,02,05,02,3.50
2009,04,02,05,03,2.10
2009,04,02,05,04,3.00
2009,04,02,05,05,4.40
2009,04,02,05,06,1.80
2009,04,02,05,07,2.70
2009,04,02,05,08,3.80
2009,04,02,05,09,3.50
2009,04,02,05,10,2.40
2009,04,02,05,11,0.90
2009,04,02,05,12,2.60
2009,04,02,05,13,4.30
2009,04,02,05,14,2.30
2009,04,02,05,15,0.90
2009,04,02,05,16,0.50
2009,04,02,05,17,2.00
2009,04,02,05,18,1.60
2009,04,02,05,19,0.70
2009,04,02,05,20,2.70
2009,04,02,05,21,1.80
2009,04,02,05,22,1.30
2009,04,02,05,23,0.20
2009,04,02,05,24,1.70
2009,04,02,05,25,1.00
2009,04,02,05,26,2.10
2009,04,02,05,27,2.10
2009,04,02,05,28,2.30
2009,04,02,05,29,1.40
2009,04,02,05,30,2.30
2009,04,02,05,31,4.30
2009,04,02,05,32,3.70
2009,04,02,05,33,2.90
2009,04,02,05,34,3.60
2009,04,02,05,35,5.30
2009,04,02,05,36,5.50
2009,04,02,05,37,1.90
2009,04,02,05,38,5.70
2009,04,02,05,39,6.10
2009,04,02,05,40,5.20
2009,04,02,05,41,6.20
2009,04,02,05,42,5.40
2009,04,02,05,43,4.80
2009,04,02,05,44,7.00
2009,04,02,05,45,6.30
2009,04,02,05,46,5.50
2009,04,02,05,47,6.70
2009,04,02,05,48,6.50
2009,04,02,05,49,6.20
2009,04,02,05,50,5.10
2009,04,02,05,51,4.40
2009,04,02,05,52,4.50
2009,04,02,05,53,4.40
2009,04,02,05,54,5.70
2009,04,02,05,55,3.20
2009,04,02,05,56,3.80
2009,04,02,05,57,4.80
2009,04,02,05,58,3.70
2009,04,02,05,59,2.10
2009,04,02,06,00,3.90
2009,04,02,06,01,4.90
2009,04,02,06,02,4.40
2009,04,02,06,03,4.70
2009,04,02,06,04,4.30
2009,04,02,06,05,4.60
2009,04,02,06,06,5.10
2009,04,02,06,07,4.10
2009,04,02,06,08,4.40
2009,04,02,06,09,3.90
2009,04,02,06,10,3.40
2009,04,02,06,11,3.80
2009,04,02,06,12,4.60
2009,04,02,06,13,4.70
2009,04,02,06,14,4.20
2009,04,02,06,15,3.60
2009,04,02,06,16,3.00
2009,04,02,06,17,2.80
2009,04,02,06,18,3.40
2009,04,02,06,19,3.80
2009,04,02,06,20,3.10
2009,04,02,06,21,4.20
2009,04,02,06,22,4.20
2009,04,02,06,23,4.60
2009,04,02,06,24,4.70
2009,04,02,06,25,4.60
2009,04,02,06,26,4.50
2009,04,02,06,27,4.20
2009,04,02,06,28,4.90
2009,04,02,06,29,4.90
2009,04,02,06,30,3.80
2009,04,02,06,31,3.90
2009,04,02,06,32,4.30
2009,04,02,06,33,4.90
2009,04,02,06,34,5.00
2009,04,02,06,35,4.90
2009,04,02,06,36,4.50
2009,04,02,06,37,4.90
2009,04,02,06,38,4.60
2009,04,02,06,39,4.60
2009,04,02,06,40,5.20
2009,04,02,06,41,3.90
2009,04,02,06,42,4.20
2009,04,02,06,43,3.40
2009,04,02,06,44,0.50
2009,04,02,06,45,2.20
2009,04,02,06,46,1.50
2009,04,02,06,47,2.60
2009,04,02,06,48,1.10
2009,04,02,06,49,1.60
2009,04,02,06,50,2.10
2009,04,02,06,51,2.40
2009,04,02,06,52,1.10
2009,04,02,06,53,2.90
2009,04,02,06,54,0.40
2009,04,02,06,55,1.60
2009,04,02,06,56,1.90
2009,04,02,06,57,0.90
2009,04,02,06,58,2.80
2009,04,02,06,59,2.00
2009,04,02,07,00,0.90
2009,04,02,07,01,2.20
2009,04,02,07,02,3.80
2009,04,02,07,03,3.40
2009,04,02,07,04,2.60
2009,04,02,07,05,1.90
2009,04,02,07,06,1.80
2009,04,02,07,07,0.00
2009,04,02,07,08,2.10
2009,04,02,07,09,1.10
2009,04,02,07,10,2.10
2009,04,02,07,11,1.00
2009,04,02,07,12,2.30
2009,04,02,07,13,0.50
2009,04,02,07,14,1.60
2009,04,02,07,15,2.90
2009,04,02,07,16,2.80
2009,04,02,07,17,1.90
2009,04,02,07,18,1.90
2009,04,02,07,19,1.60
2009,04,02,07,20,2.60
2009,04,02,07,21,1.90
2009,04,02,07,22,2.30
2009,04,02,07,23,1.70
2009,04,02,07,24,2.10
2009,04,02,07,25,2.80
2009,04,02,07,26,2.90
2009,04,02,07,27,2.10
2009,04,02,07,28,1.40
2009,04,02,07,29,3.20
2009,04,02,07,30,3.00
2009,04,02,07,31,3.00
2009,04,02,07,32,2.40
2009,04,02,07,33,1.90
2009,04,02,07,34,3.00
2009,04,02,07,35,3.00
2009,04,02,07,36,2.80
2009,04,02,07,37,3.10
2009,04,02,07,38,3.00
2009,04,02,07,39,2.40
2009,04,02,07,40,3.10
2009,04,02,07,41,2.30
2009,04,02,07,42,3.10
2009,04,02,07,43,3.00
2009,04,02,07,44,3.20
2009,04,02,07,45,3.60
2009,04,02,07,46,4.20
2009,04,02,07,47,3.40
2009,04,02,07,48,4.30
2009,04,02,07,49,2.10
2009,04,02,07,50,4.10
2009,04,02,07,51,5.10
2009,04,02,07,52,3.60
2009,04,02,07,53,4.00
2009,04,02,07,54,4.90
2009,04,02,07,55,4.20
2009,04,02,07,56,3.10
2009,04,02,07,57,4.10
2009,04,02,07,58,5.10
2009,04,02,07,59,4.70
2009,04,02,08,00,3.10
2009,04,02,08,01,3.40
2009,04,02,08,02,2.80
2009,04,02,08,03,3.50
2009,04,02,08,04,3.40
2009,04,02,08,05,2.40
2009,04,02,08,06,3.90
2009,04,02,08,07,3.30
2009,04,02,08,08,3.30
2009,04,02,08,09,4.50
2009,04,02,08,10,5.40
2009,04,02,08,11,4.20
2009,04,02,08,12,2.70
2009,04,02,08,13,2.80
2009,04,02,08,14,3.10
2009,04,02,08,15,1.50
2009,04,02,08,16,1.50
2009,04,02,08,17,3.40
2009,04,02,08,18,2.40
2009,04,02,08,19,2.80
2009,04,02,08,20,3.70
2009,04,02,08,21,2.90
2009,04,02,08,22,1.90
2009,04,02,08,23,3.20
2009,04,02,08,24,3.00
2009,04,02,08,25,1.90
2009,04,02,08,26,2.50
2009,04,02,08,27,3.80
2009,04,02,08,28,3.30
2009,04,02,08,29,2.60
2009,04,02,08,30,3.60
2009,04,02,08,31,4.20
2009,04,02,08,32,3.60
2009,04,02,08,33,2.60
2009,04,02,08,34,4.20
2009,04,02,08,35,3.40
2009,04,02,08,36,1.50
2009,04,02,08,37,3.90
2009,04,02,08,38,3.90
2009,04,02,08,39,3.60
2009,04,02,08,40,3.60
2009,04,02,08,41,3.40
2009,04,02,08,42,3.20
2009,04,02,08,43,5.60
2009,04,02,08,44,4.30
2009,04,02,08,45,3.90
2009,04,02,08,46,3.30
2009,04,02,08,47,2.90
2009,04,02,08,48,1.80
2009,04,02,08,49,3.20
2009,04,02,08,50,4.20
2009,04,02,08,51,3.30
2009,04,02,08,52,3.60
2009,04,02,08,53,3.20
2009,04,02,08,54,3.80
2009,04,02,08,55,4.40
2009,04,02,08,56,3.10
2009,04,02,08,57,3.60
2009,04,02,08,58,3.00
2009,04,02,08,59,5.50
2009,04,02,09,00,4.20
2009,04,02,09,01,3.70
2009,04,02,09,02,3.60
2009,04,02,09,03,2.90
2009,04,02,09,04,3.20
2009,04,02,09,05,2.00
2009,04,02,09,06,1.00
2009,04,02,09,07,1.00
2009,04,02,09,08,3.70
2009,04,02,09,09,3.50
2009,04,02,09,10,0.90
2009,04,02,09,11,1.20
2009,04,02,09,12,1.90
2009,04,02,09,13,1.80
2009,04,02,09,14,0.50
2009,04,02,09,15,2.60
2009,04,02,09,16,1.50
2009,04,02,09,17,1.50
2009,04,02,09,18,3.00
2009,04,02,09,19,0.50
2009,04,02,09,20,1.50
2009,04,02,09,21,2.00
2009,04,02,09,22,2.40
2009,04,02,09,23,0.30
2009,04,02,09,24,1.30
2009,04,02,09,25,2.20
2009,04,02,09,26,5.90
2009,04,02,09,27,3.10
2009,04,02,09,28,1.70
2009,04,02,09,29,2.90
2009,04,02,09,30,4.90
2009,04,02,09,31,4.50
2009,04,02,09,32,4.40
2009,04,02,09,33,2.90
2009,04,02,09,34,4.00
2009,04,02,09,35,2.40
2009,04,02,09,36,5.90
2009,04,02,09,37,3.20
2009,04,02,09,38,5.20
2009,04,02,09,39,3.80
2009,04,02,09,40,5.50
2009,04,02,09,41,5.20
2009,04,02,09,42,4.20
2009,04,02,09,43,4.40
2009,04,02,09,44,5.00
2009,04,02,09,45,8.60
2009,04,02,09,46,7.20
2009,04,02,09,47,6.10
2009,04,02,09,48,10.40
2009,04,02,09,49,7.60
2009,04,02,09,50,10.20
2009,04,02,09,51,6.90
2009,04,02,09,52,3.60
2009,04,02,09,53,2.50
2009,04,02,09,54,5.10
2009,04,02,09,55,4.30
2009,04,02,09,56,4.20
2009,04,02,09,57,3.70
2009,04,02,09,58,5.70
2009,04,02,09,59,4.30
2009,04,02,10,00,4.90
2009,04,02,10,01,14.50
2009,04,02,10,02,6.50
2009,04,02,10,03,4.40
2009,04,02,10,04,8.80
2009,04,02,10,05,4.40
2009,04,02,10,06,1.90
2009,04,02,10,07,5.40
2009,04,02,10,08,11.20
2009,04,02,10,09,12.20
2009,04,02,10,10,9.90
2009,04,02,10,11,7.80
2009,04,02,10,12,9.90
2009,04,02,10,13,3.80
2009,04,02,10,14,4.30
2009,04,02,10,15,6.30
2009,04,02,10,16,7.50
2009,04,02,10,17,5.90
2009,04,02,10,18,2.50
2009,04,02,10,19,6.40
2009,04,02,10,20,7.80
2009,04,02,10,21,13.60
2009,04,02,10,22,11.30
2009,04,02,10,23,11.40
2009,04,02,10,24,9.70
2009,04,02,10,25,8.70
2009,04,02,10,26,9.20
2009,04,02,10,27,11.80
2009,04,02,10,28,9.80
2009,04,02,10,29,8.60
2009,04,02,10,30,6.20
2009,04,02,10,31,5.70
2009,04,02,10,32,7.70
2009,04,02,10,33,10.00
2009,04,02,10,34,9.30
2009,04,02,10,35,11.70
2009,04,02,10,36,5.90
2009,04,02,10,37,7.20
2009,04,02,10,38,7.60
2009,04,02,10,39,5.90
2009,04,02,10,40,7.00
2009,04,02,10,41,5.70
2009,04,02,10,42,15.40
2009,04,02,10,43,12.80
2009,04,02,10,44,10.90
2009,04,02,10,45,12.10
2009,04,02,10,46,12.00
2009,04,02,10,47,16.20
2009,04,02,10,48,15.60
2009,04,02,10,49,5.20
2009,04,02,10,50,8.10
2009,04,02,10,51,12.50
2009,04,02,10,52,9.50
2009,04,02,10,53,17.30
2009,04,02,10,54,14.40
2009,04,02,10,55,8.10
2009,04,02,10,56,9.70
2009,04,02,10,57,9.50
2009,04,02,10,58,10.70
2009,04,02,10,59,14.00
2009,04,02,11,00,11.70
2009,04,02,11,01,8.20
2009,04,02,11,02,8.80
2009,04,02,11,03,11.60
2009,04,02,11,04,6.50
2009,04,02,11,05,8.30
2009,04,02,11,06,11.70
2009,04,02,11,07,9.20
2009,04,02,11,08,9.90
2009,04,02,11,09,9.10
2009,04,02,11,10,9.80
2009,04,02,11,11,8.10
2009,04,02,11,12,5.60
2009,04,02,11,13,6.80
2009,04,02,11,14,7.20
2009,04,02,11,15,4.80
2009,04,02,11,16,8.80
2009,04,02,11,17,4.80
2009,04,02,11,18,4.20
2009,04,02,11,19,3.90
2009,04,02,11,20,5.40
2009,04,02,11,21,7.00
2009,04,02,11,22,10.00
2009,04,02,11,23,10.40
2009,04,02,11,24,10.10
2009,04,02,11,25,5.90
2009,04,02,11,26,8.10
2009,04,02,11,27,5.30
2009,04,02,11,28,6.40
2009,04,02,11,29,2.70
2009,04,02,11,30,4.70
2009,04,02,11,31,3.90
2009,04,02,11,32,4.00
2009,04,02,11,33,6.70
2009,04,02,11,34,4.70
2009,04,02,11,35,5.90
2009,04,02,11,36,2.90
2009,04,02,11,37,2.10
2009,04,02,11,38,1.40
2009,04,02,11,39,5.40
2009,04,02,11,40,5.40
2009,04,02,11,41,2.70
2009,04,02,11,42,5.20
2009,04,02,11,43,3.80
2009,04,02,11,44,3.80
2009,04,02,11,45,1.20
2009,04,02,11,46,1.90
2009,04,02,11,47,4.40
2009,04,02,11,48,10.30
2009,04,02,11,49,9.10
2009,04,02,11,50,10.10
2009,04,02,11,51,7.90
2009,04,02,11,52,6.80
2009,04,02,11,53,3.00
2009,04,02,11,54,5.80
2009,04,02,11,55,7.20
2009,04,02,11,56,5.00
2009,04,02,11,57,3.10
2009,04,02,11,58,6.10
2009,04,02,11,59,3.00
2009,04,02,12,00,0.00
2009,04,02,12,01,0.90
2009,04,02,12,02,1.30
2009,04,02,12,03,6.50
2009,04,02,12,04,1.80
2009,04,02,12,05,3.40
2009,04,02,12,06,3.10
2009,04,02,12,07,5.40
2009,04,02,12,08,1.20
2009,04,02,12,09,3.80
2009,04,02,12,10,3.30
2009,04,02,12,11,6.50
2009,04,02,12,12,5.50
2009,04,02,12,13,4.80
2009,04,02,12,14,5.90
2009,04,02,12,15,5.10
2009,04,02,12,16,2.70
2009,04,02,12,17,0.00
2009,04,02,12,18,2.70
2009,04,02,12,19,10.60
2009,04,02,12,20,4.50
2009,04,02,12,21,8.10
2009,04,02,12,22,6.00
2009,04,02,12,23,5.30
2009,04,02,12,24,4.00
2009,04,02,12,25,5.60
2009,04,02,12,26,4.40
2009,04,02,12,27,6.20
2009,04,02,12,28,10.20
2009,04,02,12,29,5.80
2009,04,02,12,30,6.20
2009,04,02,12,31,7.30
2009,04,02,12,32,4.40
2009,04,02,12,33,9.40
2009,04,02,12,34,10.40
2009,04,02,12,35,15.60
2009,04,02,12,36,11.70
2009,04,02,12,37,10.30
2009,04,02,12,38,9.00
2009,04,02,12,39,6.30
2009,04,02,12,40,6.50
2009,04,02,12,41,8.80
2009,04,02,12,42,14.60
2009,04,02,12,43,10.60
2009,04,02,12,44,4.70
2009,04,02,12,45,9.60
2009,04,02,12,46,12.20
2009,04,02,12,47,6.60
2009,04,02,12,48,8.70
2009,04,02,12,49,8.70
2009,04,02,12,50,10.80
2009,04,02,12,51,12.60
2009,04,02,12,52,7.20
2009,04,02,12,53,7.80
2009,04,02,12,54,13.40
2009,04,02,12,55,8.40
2009,04,02,12,56,5.70
2009,04,02,12,57,9.00
2009,04,02,12,58,15.30
2009,04,02,12,59,15.50
2009,04,02,13,00,13.50
2009,04,02,13,01,13.50
2009,04,02,13,02,15.10
2009,04,02,13,03,12.30
2009,04,02,13,04,14.40
2009,04,02,13,05,11.70
2009,04,02,13,06,12.90
2009,04,02,13,07,13.20
2009,04,02,13,08,15.00
2009,04,02,13,09,9.10
2009,04,02,13,10,10.40
2009,04,02,13,11,8.40
2009,04,02,13,12,5.90
2009,04,02,13,13,7.30
2009,04,02,13,14,10.20
2009,04,02,13,15,6.20
2009,04,02,13,16,8.60
2009,04,02,13,17,6.70
2009,04,02,13,18,6.20
2009,04,02,13,19,9.70
2009,04,02,13,20,5.00
2009,04,02,13,21,8.90
2009,04,02,13,22,2.20
2009,04,02,13,23,5.90
2009,04,02,13,24,8.90
2009,04,02,13,25,8.40
2009,04,02,13,26,2.90
2009,04,02,13,27,4.90
2009,04,02,13,28,8.10
2009,04,02,13,29,2.70
2009,04,02,13,30,9.60
2009,04,02,13,31,3.00
2009,04,02,13,32,6.90
2009,04,02,13,33,8.60
2009,04,02,13,34,4.60
2009,04,02,13,35,6.30
2009,04,02,13,36,11.40
2009,04,02,13,37,8.30
2009,04,02,13,38,9.20
2009,04,02,13,39,8.00
2009,04,02,13,40,9.20
2009,04,02,13,41,7.10
2009,04,02,13,42,15.30
2009,04,02,13,43,8.40
2009,04,02,13,44,10.40
2009,04,02,13,45,12.70
2009,04,02,13,46,10.20
2009,04,02,13,47,3.70
2009,04,02,13,48,4.90
2009,04,02,13,49,5.70
2009,04,02,13,50,8.80
2009,04,02,13,51,9.20
2009,04,02,13,52,12.20
2009,04,02,13,53,7.90
2009,04,02,13,54,6.10
2009,04,02,13,55,8.90
2009,04,02,13,56,6.80
2009,04,02,13,57,7.00
2009,04,02,13,58,4.30
2009,04,02,13,59,3.20
2009,04,02,14,00,6.30
2009,04,02,14,01,11.10
2009,04,02,14,02,3.50
2009,04,02,14,03,12.20
2009,04,02,14,04,6.80
2009,04,02,14,05,6.80
2009,04,02,14,06,7.80
2009,04,02,14,07,2.90
2009,04,02,14,08,4.60
2009,04,02,14,09,3.40
2009,04,02,14,10,6.40
2009,04,02,14,11,15.70
2009,04,02,14,12,13.40
2009,04,02,14,13,8.00
2009,04,02,14,14,9.50
2009,04,02,14,15,12.40
2009,04,02,14,16,8.10
2009,04,02,14,17,9.70
2009,04,02,14,18,6.30
2009,04,02,14,19,12.40
2009,04,02,14,20,10.40
2009,04,02,14,21,6.50
2009,04,02,14,22,11.70
2009,04,02,14,23,12.50
2009,04,02,14,24,12.10
2009,04,02,14,25,11.50
2009,04,02,14,26,6.00
2009,04,02,14,27,9.80
2009,04,02,14,28,9.00
2009,04,02,14,29,6.30
2009,04,02,14,30,9.30
2009,04,02,14,31,12.70
2009,04,02,14,32,9.00
2009,04,02,14,33,7.90
2009,04,02,14,34,8.50
2009,04,02,14,35,5.00
2009,04,02,14,36,4.50
2009,04,02,14,37,8.10
2009,04,02,14,38,8.00
2009,04,02,14,39,10.40
2009,04,02,14,40,9.40
2009,04,02,14,41,9.40
2009,04,02,14,42,11.90
2009,04,02,14,43,5.10
2009,04,02,14,44,14.60
2009,04,02,14,45,15.30
2009,04,02,14,46,9.20
2009,04,02,14,47,17.50
2009,04,02,14,48,16.30
2009,04,02,14,49,11.70
2009,04,02,14,50,11.30
2009,04,02,14,51,10.80
2009,04,02,14,52,9.30
2009,04,02,14,53,8.50
2009,04,02,14,54,8.30
2009,04,02,14,55,10.20
2009,04,02,14,56,12.60
2009,04,02,14,57,8.30
2009,04,02,14,58,3.60
2009,04,02,14,59,4.40
2009,04,02,15,00,9.90
2009,04,02,15,01,6.10
2009,04,02,15,02,10.60
2009,04,02,15,03,5.10
2009,04,02,15,04,5.80
2009,04,02,15,05,5.60
2009,04,02,15,06,12.10
2009,04,02,15,07,6.20
2009,04,02,15,08,9.80
2009,04,02,15,09,6.00
2009,04,02,15,10,9.20
2009,04,02,15,11,15.30
2009,04,02,15,12,17.40
2009,04,02,15,13,14.70
2009,04,02,15,14,7.00
2009,04,02,15,15,7.60
2009,04,02,15,16,8.90
2009,04,02,15,17,9.20
2009,04,02,15,18,7.10
2009,04,02,15,19,11.70
2009,04,02,15,20,16.00
2009,04,02,15,21,5.70
2009,04,02,15,22,7.40
2009,04,02,15,23,4.00
2009,04,02,15,24,4.80
2009,04,02,15,25,8.20
2009,04,02,15,26,7.90
2009,04,02,15,27,5.70
2009,04,02,15,28,2.50
2009,04,02,15,29,4.40
2009,04,02,15,30,7.70
2009,04,02,15,31,11.60
2009,04,02,15,32,7.60
2009,04,02,15,33,5.30
2009,04,02,15,34,5.90
2009,04,02,15,35,8.00
2009,04,02,15,36,12.80
2009,04,02,15,37,8.00
2009,04,02,15,38,11.30
2009,04,02,15,39,10.60
2009,04,02,15,40,4.70
2009,04,02,15,41,7.60
2009,04,02,15,42,9.60
2009,04,02,15,43,9.00
2009,04,02,15,44,8.30
2009,04,02,15,45,4.60
2009,04,02,15,46,6.40
2009,04,02,15,47,6.40
2009,04,02,15,48,6.40
2009,04,02,15,49,6.40
2009,04,02,15,50,6.40
2009,04,02,15,51,10.10
2009,04,02,15,52,11.90
2009,04,02,15,53,16.00
2009,04,02,15,54,14.70
2009,04,02,15,55,15.20
2009,04,02,15,56,18.20
2009,04,02,15,57,15.70
2009,04,02,15,58,21.70
2009,04,02,15,59,20.40
2009,04,02,16,00,3.30
2009,04,02,16,01,12.60
2009,04,02,16,02,13.80
2009,04,02,16,03,12.20
2009,04,02,16,04,12.70
2009,04,02,16,05,8.70
2009,04,02,16,06,15.10
2009,04,02,16,07,7.20
2009,04,02,16,08,9.70
2009,04,02,16,09,12.50
2009,04,02,16,10,11.30
2009,04,02,16,11,5.60
2009,04,02,16,12,13.00
2009,04,02,16,13,12.50
2009,04,02,16,14,8.00
2009,04,02,16,15,5.30
2009,04,02,16,16,11.20
2009,04,02,16,17,13.30
2009,04,02,16,18,6.60
2009,04,02,16,19,12.70
2009,04,02,16,20,11.10
2009,04,02,16,21,8.70
2009,04,02,16,22,11.90
2009,04,02,16,23,11.50
2009,04,02,16,24,15.60
2009,04,02,16,25,10.70
2009,04,02,16,26,10.50
2009,04,02,16,27,14.30
2009,04,02,16,28,9.20
2009,04,02,16,29,17.20
2009,04,02,16,30,7.30
2009,04,02,16,31,7.10
2009,04,02,16,32,9.90
2009,04,02,16,33,9.90
2009,04,02,16,34,10.50
2009,04,02,16,35,16.90
2009,04,02,16,36,13.30
2009,04,02,16,37,14.40
2009,04,02,16,38,7.70
2009,04,02,16,39,7.70
2009,04,02,16,40,9.40
2009,04,02,16,41,12.40
2009,04,02,16,42,14.80
2009,04,02,16,43,10.10
2009,04,02,16,44,8.10
2009,04,02,16,45,12.60
2009,04,02,16,46,5.30
2009,04,02,16,47,7.90
2009,04,02,16,48,6.40
2009,04,02,16,49,10.40
2009,04,02,16,50,9.70
2009,04,02,16,51,12.20
2009,04,02,16,52,14.60
2009,04,02,16,53,10.40
2009,04,02,16,54,14.00
2009,04,02,16,55,6.60
2009,04,02,16,56,12.70
2009,04,02,16,57,15.20
2009,04,02,16,58,10.90
2009,04,02,16,59,11.30
2009,04,02,17,00,12.20
2009,04,02,17,01,12.80
2009,04,02,17,02,9.90
2009,04,02,17,03,11.50
2009,04,02,17,04,5.70
2009,04,02,17,05,1.60
2009,04,02,17,06,7.30
2009,04,02,17,07,14.60
2009,04,02,17,08,13.30
2009,04,02,17,09,12.20
2009,04,02,17,10,8.40
2009,04,02,17,11,8.50
2009,04,02,17,12,12.90
2009,04,02,17,13,8.10
2009,04,02,17,14,9.40
2009,04,02,17,15,10.40
2009,04,02,17,16,17.90
2009,04,02,17,17,12.10
2009,04,02,17,18,12.50
2009,04,02,17,19,13.90
2009,04,02,17,20,8.40
2009,04,02,17,21,13.90
2009,04,02,17,22,23.30
2009,04,02,17,23,17.20
2009,04,02,17,24,7.90
2009,04,02,17,25,19.00
2009,04,02,17,26,17.80
2009,04,02,17,27,22.20
2009,04,02,17,28,14.00
2009,04,02,17,29,8.40
2009,04,02,17,30,4.30
2009,04,02,17,31,16.30
2009,04,02,17,32,12.10
2009,04,02,17,33,7.10
2009,04,02,17,34,16.10
2009,04,02,17,35,18.80
2009,04,02,17,36,17.40
2009,04,02,17,37,11.40
2009,04,02,17,38,6.40
2009,04,02,17,39,8.60
2009,04,02,17,40,14.00
2009,04,02,17,41,13.60
2009,04,02,17,42,15.30
2009,04,02,17,43,13.00
2009,04,02,17,44,8.80
2009,04,02,17,45,13.10
2009,04,02,17,46,10.00
2009,04,02,17,47,13.00
2009,04,02,17,48,13.70
2009,04,02,17,49,13.30
2009,04,02,17,50,13.10
2009,04,02,17,51,20.80
2009,04,02,17,52,10.60
2009,04,02,17,53,20.80
2009,04,02,17,54,18.10
2009,04,02,17,55,11.30
2009,04,02,17,56,13.40
2009,04,02,17,57,10.50
2009,04,02,17,58,20.90